Satellite-Ground Cal/Val Site Overpasses Predictions

Prediction of Satellite NPP Overpassing Cal/Val Site: Antarctic Dome C

Ground Cal/Val Site Location: Latitude: -75.10, Longitude: 123.35; Satellite-Ground Site NADIR distance within 100 km.

Table of predicted overpasses for the next 14.0 days since TLE Epoch: 5/29/2020
Interval Starting Time Ending Time Minimum Distance Time Minimum Distance (km)
1 05/30/2020 14:35:49 05/30/2020 14:36:04 05/30/2020 14:35:56 85.89
2 05/31/2020 07:37:21 05/31/2020 07:37:49 05/31/2020 07:37:35 34.08
3 06/01/2020 07:18:36 06/01/2020 07:18:55 06/01/2020 07:18:46 76.07
4 06/03/2020 15:00:50 06/03/2020 15:01:14 06/03/2020 15:01:02 57.92
5 06/04/2020 14:41:59 06/04/2020 14:42:24 06/04/2020 14:42:12 51.19
6 06/05/2020 07:43:40 06/05/2020 07:44:01 06/05/2020 07:43:51 69.16
7 06/06/2020 07:24:47 06/06/2020 07:25:14 06/06/2020 07:25:00 39.01
8 06/08/2020 15:07:13 06/08/2020 15:07:21 06/08/2020 15:07:17 95.44
9 06/09/2020 14:48:13 06/09/2020 14:48:41 06/09/2020 14:48:27 15.74


NCC Satellite Cal/Val Overpasses Prediction Service
